Location: Cheyres
(46.8153°N, 6.7877°E)
Time: 02:05:59
(UTC+00:00)

CUBEBUG 2 - Pass Details

Date: 02 July 2022
Orbit: 584 x 692 km, 97.7° (Epoch: 16 August)

Event Time Altitude Azimuth Distance (km) Brightness Sun altitude
Rises 02:36:56 0° 13° (NNE) 2,834 ? -9.2°
Reaches altitude 10° 02:39:05 10° 14° (NNE) 1,936 ? -9.0°
Maximum altitude 02:43:17 85° 102° (ESE) 611 ? -8.5°
Drops below altitude 10° 02:47:34 10° 193° (SSW) 1,970 ? -8.0°
Enters shadow 02:48:21 - 193° (SSW) 2,295 ? -7.9°
